1998-067NZ

Last updated on Mon Jul 23 2018 00:15:03 GMT+0000 (Coordinated Universal Time)

1 43551U 98067NZ 18203.37148322 .00008006 00000-0 12506-3 0 9993 2 43551 51.6405 203.2971 0006507 354.2871 5.8041 15.54776376 1407
UTC large
Height (km)
Speed (km/s)
/
Latitude / Longitude
Inclination (degrees)
Orbital Period (minutes)
Azimuth
Elevation
Range (km)
Doppler Factor

Next 0 passes for location: London (51.5072 / 0.1276)

Sorry there are no passes over London.